Change the Weather History Date:

Saturday, January 25, 2014

  Actual Average Record
Temperature  
Mean Temperature 78 °F -  
Max Temperature 87 °F 91 °F - ()
Min Temperature 68 °F 75 °F - ()
Cooling Degree Days 12    
Growing Degree Days 28 (Base 50)    
Moisture  
Dew Point 67 °F    
Average Humidity 66    
Maximum Humidity 83    
Minimum Humidity 43    
Precipitation  
Precipitation 0.00 in 0.04 in - ()
Sea Level Pressure  
Sea Level Pressure 29.86 in    
Wind  
Wind Speed 8 mph ()    
Max Wind Speed 15 mph    
Max Gust Speed -    
Visibility 4.2 miles    
Events      
T = Trace of Precipitation, MM = Missing Value Source: Averaged Metar Reports

Daily Weather History Graph

Daily Weather History Graph

Search for Another Location

Airport or City:

Trip Planner

Search our weather history database for the weather conditions in past years. The results will help you decide how hot, cold, wet, or windy it might be!

Date:

Astronomy

Jan. 25, 2014 Rise Set
Actual Time 6:46 AM ICT 6:31 PM ICT
Civil Twilight 6:24 AM ICT 6:53 PM ICT
Nautical Twilight 5:59 AM ICT 7:18 PM ICT
Astronomical Twilight 5:33 AM ICT 7:44 PM ICT
Moon 12:55 AM ICT (1/25) 1:02 PM ICT (1/25)
Length of Visible Light 12h 28m
Length of Day
11h 44m
Last Quarter, 39% of the Moon is Illuminated
Jan 25
Last Quarter
Jan 31
New
Feb 7
First Quarter
Feb 15
Full
Feb 23
Last Quarter

Hourly Weather History & Observations

Time (ICT) Temp. Heat Index Dew Point Humidity Pressure Visibility Wind Dir Wind Speed Gust Speed Precip Events Conditions
12:00 AM 75.2 °F - 66.2 °F 73% 29.92 in 5.0 mi ENE 9.2 mph - N/A   Mostly Cloudy
12:30 AM 75.2 °F - 66.2 °F 73% 29.92 in 5.0 mi ENE 12.7 mph - N/A   Mostly Cloudy
1:00 AM 76 °F - 66 °F 65% 29.89 in 4 mi Calm Calm - -   Mist
1:00 AM 75.2 °F - 66.2 °F 73% 29.92 in 5.0 mi ENE 10.4 mph - N/A   Mostly Cloudy
1:30 AM 75.2 °F - 66.2 °F 73% 29.92 in 5.0 mi East 11.5 mph - N/A   Mostly Cloudy
2:00 AM 73.4 °F - 66.2 °F 78% 29.89 in 5.0 mi East 8.1 mph - N/A   Mostly Cloudy
2:30 AM 73.4 °F - 66.2 °F 78% 29.86 in 5.0 mi ENE 6.9 mph - N/A   Mostly Cloudy
3:00 AM 73.4 °F - 66.2 °F 78% 29.86 in 5.0 mi ENE 9.2 mph - N/A   Mostly Cloudy
3:30 AM 73.4 °F - 66.2 °F 78% 29.86 in 5.0 mi East 6.9 mph - N/A   Mostly Cloudy
4:00 AM 74 °F - 68 °F 75% 29.84 in 4 mi Calm Calm - -   Mist
4:00 AM 73.4 °F - 66.2 °F 78% 29.86 in 5.0 mi East 8.1 mph - N/A   Mostly Cloudy
4:30 AM 73.4 °F - 66.2 °F 78% 29.86 in 5.0 mi East 9.2 mph - N/A   Mostly Cloudy
5:00 AM 73.4 °F - 66.2 °F 78% 29.86 in 5.0 mi ENE 9.2 mph - N/A   Mostly Cloudy
5:30 AM 73.4 °F - 66.2 °F 78% 29.86 in 5.0 mi East 8.1 mph - N/A   Mostly Cloudy
6:00 AM 73.4 °F - 66.2 °F 78% 29.86 in 5.0 mi ENE 6.9 mph - N/A   Mostly Cloudy
6:30 AM 73.4 °F - 66.2 °F 78% 29.86 in 3.1 mi ENE 8.1 mph - N/A   Mostly Cloudy
7:00 AM 73 °F - 68 °F 79% 29.84 in 3 mi East 4.6 mph - -   Mist
7:00 AM 71.6 °F - 66.2 °F 83% 29.86 in 3.1 mi ENE 6.9 mph - N/A   Mostly Cloudy
7:30 AM 73.4 °F - 66.2 °F 78% 29.89 in 3.1 mi ENE 8.1 mph - N/A   Mostly Cloudy
8:00 AM 75.2 °F - 66.2 °F 73% 29.89 in 3.1 mi ENE 9.2 mph - N/A   Mostly Cloudy
8:30 AM 77.0 °F - 66.2 °F 69% 29.89 in 3.7 mi East 13.8 mph - N/A   Partly Cloudy
9:00 AM 78.8 °F - 66.2 °F 65% 29.89 in 3.7 mi East 11.5 mph - N/A   Partly Cloudy
9:30 AM 78.8 °F - 66.2 °F 65% 29.89 in 3.7 mi East 13.8 mph - N/A   Partly Cloudy
10:00 AM 80 °F - 69 °F 61% 29.86 in 4 mi ENE 6.9 mph - -   Mist
10:00 AM 80.6 °F 82.7 °F 66.2 °F 61% 29.89 in 3.7 mi East 15.0 mph - N/A   Partly Cloudy
10:30 AM 80.6 °F 82.7 °F 66.2 °F 61% 29.89 in 3.7 mi East 15.0 mph - N/A   Partly Cloudy
11:00 AM 82.4 °F 85.4 °F 68.0 °F 62% 29.89 in 3.7 mi East 13.8 mph - N/A   Partly Cloudy
11:30 AM 82.4 °F 84.6 °F 66.2 °F 58% 29.89 in 3.7 mi ENE 11.5 mph - N/A   Partly Cloudy
12:00 PM 82.4 °F 83.9 °F 64.4 °F 54% 29.86 in 3.7 mi East 11.5 mph - N/A   Partly Cloudy
12:30 PM 84.2 °F 85.6 °F 64.4 °F 51% 29.86 in 3.7 mi East 11.5 mph - N/A   Partly Cloudy
1:00 PM 86 °F - 67 °F 43% 29.82 in 4 mi ENE 8.1 mph - -   Haze
1:00 PM 86.0 °F 87.3 °F 64.4 °F 48% 29.83 in 4.3 mi East 9.2 mph - N/A   Partly Cloudy
1:30 PM 86.0 °F 87.3 °F 64.4 °F 48% 29.83 in 4.3 mi East 11.5 mph - N/A   Partly Cloudy
2:00 PM 86.0 °F 87.3 °F 64.4 °F 48% 29.80 in 4.3 mi East 9.2 mph - N/A   Partly Cloudy
2:30 PM 87.8 °F 89.4 °F 64.4 °F 46% 29.80 in 4.3 mi ENE 8.1 mph - N/A   Partly Cloudy
3:00 PM 86.0 °F 89.4 °F 68.0 °F 55% 29.80 in 4.3 mi WNW 11.5 mph - N/A   Partly Cloudy
3:30 PM 84.2 °F 87.3 °F 68.0 °F 58% 29.80 in 4.3 mi WNW 9.2 mph - N/A   Partly Cloudy
4:00 PM 86 °F - 70 °F 50% 29.77 in 5 mi West 6.9 mph - -   Haze
4:00 PM 84.2 °F 87.3 °F 68.0 °F 58% 29.80 in 4.3 mi West 11.5 mph - N/A   Partly Cloudy
4:30 PM 84.2 °F 87.3 °F 68.0 °F 58% 29.80 in 4.3 mi West 12.7 mph - N/A   Partly Cloudy
5:00 PM 84.2 °F 87.3 °F 68.0 °F 58% 29.80 in 4.3 mi West 11.5 mph - N/A   Partly Cloudy
5:30 PM 82.4 °F 84.6 °F 66.2 °F 58% 29.83 in 4.3 mi WNW 9.2 mph - N/A   Partly Cloudy
6:30 PM 80.6 °F 82.7 °F 66.2 °F 61% 29.83 in 5.0 mi West 9.2 mph - N/A   Scattered Clouds
7:00 PM 82 °F - 69 °F 56% 29.80 in 4 mi WNW 5.8 mph - -   Haze
7:00 PM 80.6 °F 82.7 °F 66.2 °F 61% 29.86 in 4.3 mi WNW 8.1 mph - N/A   Mostly Cloudy
7:30 PM 78.8 °F - 66.2 °F 65% 29.86 in 4.3 mi WNW 8.1 mph - N/A   Scattered Clouds
8:00 PM 78.8 °F - 66.2 °F 65% 29.86 in 4.3 mi West 8.1 mph - N/A   Scattered Clouds
8:30 PM 78.8 °F - 68.0 °F 69% 29.89 in 4.3 mi West 9.2 mph - N/A   Scattered Clouds
9:00 PM 78.8 °F - 68.0 °F 69% 29.89 in 4.3 mi West 6.9 mph - N/A   Scattered Clouds
9:30 PM 78.8 °F - 68.0 °F 69% 29.89 in 4.3 mi West 6.9 mph - N/A   Scattered Clouds
10:00 PM 81 °F - 70 °F 62% 29.86 in 4 mi NW 5.8 mph - -   Mist
10:00 PM 78.8 °F - 68.0 °F 69% 29.92 in 4.3 mi WNW 4.6 mph - N/A   Scattered Clouds
10:30 PM 78.8 °F - 68.0 °F 69% 29.92 in 4.3 mi Variable 2.3 mph - N/A   Scattered Clouds
11:00 PM 78.8 °F - 66.2 °F 65% 29.92 in 4.3 mi NW 3.5 mph - N/A   Scattered Clouds
11:30 PM 75.2 °F - 68.0 °F 78% 29.92 in 4.3 mi Calm Calm - N/A   Scattered Clouds